Location: Unspecified
(22.6800°N, 112.2000°E)
Time: 12:32:39
(UTC+08:00)

Transit 2A - Pass Details

Date: 10 August 2021
Orbit: 595 x 963 km, 66.7° (Epoch: 16 September)

Event Time Altitude Azimuth Distance (km) Brightness Sun altitude
Rises 15:21:27 0° 316° (NW) 3,479 9.8 50.5°
Reaches altitude 10° 15:24:27 10° 301° (WNW) 2,589 9.4 49.8°
Maximum altitude 15:28:55 22° 253° (WSW) 1,940 9.3 48.8°
Drops below altitude 10° 15:33:33 10° 206° (SSW) 2,679 9.2 47.7°
Sets 15:36:44 0° 191° (S) 3,632 9.6 47.0°
